EHI
0 0 0 0 0 0 0 0 0 0 0 0 0 0 0 0 0 0 0 0 0 0 0 0 0 0 0 0 0 0 0 0 0 0 0 0 0 0
0 0 0 0 0 0 0 0 0 0 0 0 0 0 0 0 0 0 0 0 0 0 0 0 0 0 0 0 0 0 0 0 0 0 0 0 0 0
0 0 0 0 0 0 0 0 0 0 0 0 0 0 0 0 0 0 0 0 0 0 0 0 0 0 0 0 0 0 0 0 0 0 0 0 0 0
0 0 0 0 0 0 0 0 0 0 0 0 0 0 0 0 0 0 0 0 0 0 0 0 0 0 0 0 0 0 0 0 0 0 0 0 0 0
0 0 0 0 0 0 0 0 0 0 0 0 0 0 0 0 0 0 0 0 0 0 0 0 0 0 0 0 0 0 0 0 0 0 0 0 0 0
0 0 0 0 0 0 0 0 0 0 0 0 0 0 0 0 0 0 0 0 0 0 0 0 0 0 0 0 0 0 0 0 0 0 0 0 0 0
0 0 0 0 0 0 0 0 0 0 0 0 0 0 0 0 0 0 0 0 0 0 0 0 0 0 0 0 0 0 0 0 0 0 0 0 0 0
0 0 0 0 0 0 0 0 0 0 0 0 0 0 0 0 0 0 0 0 0 0 0 0 0 0 0 0 0 0 0 0 0 0 0 0 0 0
0 0 0 0 0 0 0 0 0 0 0 0 0 0 0 0 0 0 0 0 0 0 0 0 0 0 0 0 0 0 0 0 0 0 0 0 0 0
0 0 0 0 0 0 0 0 0 0 0 0 0 0 0 0 0 0 0 0 0 0 0 0 0 0 0 0 0 0 0 0 0 0 0 0 0 0
0 0 0 0 0 0 0 0 0 0 0 0 0 0 0 0 0 0 0 0 0 0 0 0 0 0 0 0 0 0 0 0 0 0 0 0 0 0
0 0 0 0 0 0 0 0 0 0 0 0 0 0 0 0 0 0 0 0 0 0 0 0 0 0 0 0 0 0 0 0 0 0 0 0 0 0
0 0 0 0 0 0 0 0 0 0 0 0 0 0 0 0 0 0 0 0 0 0 0 0 0 0 0 0 0 0 0 0 0 0 0 0 0 0
0 0 0 0 0 0 0 0 0 0 0 0 0 0 0 0 0 0 0 0 0 0 0 0 0 0 0 0 0 0 0 0 0 0 0 0 0 0
0 0 0 0 0 0 0 0 0 0 0 0 0 0 0 0 0 0 0 0 0 0 0 0 0 0 0 0 0 0 0 0 0 0 0 0 0 0
0 0 0 0 0 0 0 0 0 0 0 0 0 0 0 0 0 0 0 0 0 0 0 0 0 0 0 0 0 0 0 0 0 0 0 0 0 0
0 0 0 0 0 0 0 0 0 0 0 0 0 0 0 0 0 0 0 0 0 0 0 0 0 0 0 0 0 0 0 0 0 0 0 0 0 0
0 0 0 0 0 0 0 0 0 0 0 0 0 0 0 0 0 0 0 0 0 0 0 0 0 0 0 0 0 0 0 0 0 0 0 0 0 0
0 0 0 0 0 0 0 0 0 0 0 0 0 0 0 0 0 0 0 0 0 0 0 0 0 0 0 0 0 0 0 0 0 0 0 0 0 0
0 0 0 0 0 0 0 0 0 0 0 0 0 0 0 0 0 0 0 0 0 0 0 0 0 0 0 0 0 0 0 0 0 0 0 0 0 0
0 0 0 0 0 0 0 0 0 0 0 0 0 0 0 0 0 0 0 0 0 0 0 0 0 0 0 0 0 0 0 0 0 0 0 0 0 0
0 0 0 0 0 0 0 0 0 0 0 0 0 0 0 0 0 0 0 0 0 0 0 0 0 0 0 0 0 0 0 0 0 0 0 0 0 0
0 0 0 0 0 0 0 0 0 0 0 0 0 0 0 0 0 0 0 0 0 0 0 0 0 0 0 0 0 0 0 0 0 0 0 0 0 0
Wind_Speed
3 4 3 3 3 3 3 3 4 6 6 4 3 2 3 3 6 5 6 11 15 15 14 14 14 14 14 14 14 13 12 12 12 12 12 12 12 11
3 3 4 3 3 3 3 3 4 5 7 4 4 4 5 6 9 6 6 14 14 15 15 15 14 14 14 14 13 13 12 12 12 12 11 11 11 11
3 3 4 4 3 3 3 3 4 4 8 7 4 5 5 6 6 6 6 6 7 14 15 15 14 14 14 14 13 12 12 12 12 11 11 11 10 10
4 4 5 4 4 3 3 4 4 5 6 9 6 5 6 6 6 6 6 6 6 11 14 14 14 14 14 13 12 11 11 11 11 11 11 11 11 11
5 5 5 5 5 4 4 5 4 5 5 6 7 5 5 5 5 6 6 6 6 8 11 13 13 14 13 12 11 11 10 10 10 10 10 10 10 11
5 5 5 6 6 6 5 5 5 5 5 6 6 5 5 4 4 5 6 5 5 5 7 9 10 12 12 11 11 10 9 9 9 10 10 9 9 10
5 5 6 7 9 8 6 5 5 5 5 5 6 5 5 4 4 4 6 6 6 4 4 5 5 5 5 8 9 9 9 9 8 9 8 7 7 8
5 5 6 7 8 10 11 10 8 6 6 5 5 6 6 5 5 5 5 6 6 2 3 5 3 4 4 4 7 9 8 7 7 7 7 7 6 7
5 5 5 5 7 5 8 9 9 10 10 7 7 7 7 6 6 6 6 6 6 4 4 6 4 4 4 5 9 8 7 7 7 7 7 6 6 6
5 5 5 6 6 6 5 5 6 6 7 6 6 7 7 6 6 6 7 7 6 4 3 5 4 4 4 4 8 7 7 7 7 7 6 6 5 5
5 5 5 6 9 8 5 5 6 5 7 9 9 9 10 10 8 4 4 5 6 4 2 3 3 4 4 3 4 6 6 6 6 7 6 5 5 4
3 4 6 7 8 8 5 5 6 5 4 5 6 7 7 7 9 5 4 5 4 4 2 2 2 2 3 3 2 3 3 5 6 7 6 5 4 2
3 3 3 7 9 9 7 4 6 6 4 4 4 4 4 3 3 4 3 4 5 4 2 2 2 2 3 3 3 2 2 2 3 4 4 5 4 3
3 3 4 8 8 8 6 5 6 5 2 3 3 3 3 4 4 4 4 4 5 6 4 3 3 3 3 4 4 3 2 2 2 2 2 4 4 4
3 6 7 7 6 4 5 6 4 2 2 3 3 3 3 4 4 4 4 4 4 4 4 4 4 3 3 3 3 3 3 3 2 2 2 2 2 1
3 5 6 6 4 4 4 3 2 2 2 3 3 3 3 3 3 3 3 3 3 3 3 3 3 3 3 4 4 4 3 3 2 2 2 2 1 1
3 1 1 2 2 2 2 2 2 2 2 2 3 3 3 4 4 3 3 3 2 3 3 2 2 2 3 3 3 3 3 3 2 2 2 2 2 1
2 1 1 2 2 2 3 3 3 3 3 3 3 3 4 4 4 3 3 3 3 3 3 3 3 2 2 2 2 2 2 2 2 1 1 1 2 1
2 1 2 2 2 2 3 3 3 3 3 2 3 3 3 3 3 3 3 3 3 3 3 2 2 2 2 3 3 1 2 2 2 2 1 1 2 2
2 2 2 2 2 2 3 3 3 3 2 2 3 3 3 3 3 3 3 3 3 3 3 3 2 2 2 2 2 3 3 2 2 2 2 1 2 3
2 2 2 2 2 2 3 3 3 3 3 3 3 3 3 3 3 3 3 4 3 3 3 3 3 4 2 1 1 2 2 3 2 1 1 1 2 1
3 3 2 2 2 2 3 3 3 3 3 2 3 3 3 3 3 3 3 3 3 3 3 3 3 2 1 0 1 2 3 3 4 4 3 2 1 1
3 3 3 3 2 2 2 3 3 3 3 3 3 3 3 3 3 2 3 2 2 3 3 3 2 2 1 1 1 1 2 3 3 3 3 4 3 4
Wind_Direction
242 242 243 246 240 243 243 241 258 283 284 272 274 286 300 299 306 309 304 305 310 308 305 304 302 303 303 304 302 299 298 297 295 292 293 293 292 291
249 248 253 252 248 244 244 248 247 258 274 275 274 288 295 298 301 299 294 302 303 305 303 301 299 299 300 299 299 296 296 296 293 291 291 292 291 292
261 258 261 259 257 255 253 254 256 258 272 283 281 286 284 287 294 292 289 287 291 298 302 300 300 299 297 294 293 293 292 292 292 290 289 290 291 291
258 257 261 264 263 259 256 257 259 257 265 282 288 287 282 283 287 290 293 291 285 295 300 302 299 298 296 293 290 290 290 290 290 289 285 285 287 287
254 257 259 258 261 259 257 258 260 265 264 273 284 285 285 286 293 292 289 285 287 293 299 302 300 301 299 294 291 289 289 288 288 286 283 282 285 286
256 255 256 253 254 256 257 255 257 265 267 272 280 285 287 286 285 295 300 297 294 295 294 296 298 302 302 298 294 292 292 290 289 290 285 282 283 285
262 260 259 261 264 262 263 257 257 262 269 273 278 285 287 292 290 291 295 300 293 280 292 296 298 296 298 300 297 296 295 293 291 291 288 287 287 287
266 269 269 269 273 275 277 277 273 268 268 269 276 279 284 285 287 291 295 302 297 296 299 296 293 291 291 285 295 297 295 296 294 294 293 288 287 290
257 264 274 276 283 270 274 281 280 276 274 273 276 276 278 277 282 289 287 285 281 286 293 288 287 283 284 294 300 299 299 300 298 297 297 294 294 293
257 257 263 271 271 271 267 271 273 275 276 273 267 271 273 272 267 274 278 285 279 272 263 277 285 283 291 290 299 303 308 306 301 298 297 297 294 292
264 264 266 264 273 282 275 272 278 280 284 282 282 281 283 283 282 283 283 288 289 282 246 259 277 293 290 282 293 314 315 312 311 306 302 299 294 293
279 271 275 280 285 291 273 266 277 282 286 293 294 293 288 286 288 272 267 272 282 282 245 253 271 300 300 284 287 304 307 311 319 322 317 310 299 290
286 283 279 291 294 296 294 276 282 293 289 288 289 291 293 291 289 282 269 262 268 266 258 258 266 271 271 294 301 300 300 303 309 309 310 319 318 303
283 285 287 296 298 300 300 298 304 309 300 299 298 299 304 303 298 293 285 274 264 266 263 252 249 254 269 283 288 298 303 301 297 300 299 312 311 311
287 295 303 306 308 304 307 314 316 309 303 300 301 300 299 296 298 301 300 292 286 280 271 256 249 256 254 261 272 284 298 301 294 294 301 304 295 295
301 300 308 316 322 319 320 322 318 305 304 295 299 299 302 309 309 309 308 311 309 306 300 287 264 250 262 262 262 274 280 282 299 306 303 305 306 289
311 312 330 331 330 329 325 322 318 318 316 307 305 310 312 316 313 315 310 313 310 311 319 328 321 292 263 266 266 271 278 276 270 289 301 308 313 314
331 331 324 320 316 318 319 319 317 317 316 311 310 307 310 313 316 322 322 320 318 316 317 323 331 334 330 320 280 261 276 282 287 277 256 281 304 320
348 324 316 316 316 315 313 312 312 315 317 314 312 310 309 310 314 319 322 321 323 320 319 322 328 332 331 324 326 311 269 280 297 301 290 270 281 291
333 317 313 313 311 310 311 312 314 318 321 318 312 309 310 311 316 319 320 321 322 322 325 331 331 319 298 294 301 313 308 282 274 288 298 299 292 306
320 312 308 309 310 310 309 308 307 307 311 313 313 314 313 315 316 316 317 321 325 322 321 322 317 322 307 313 317 319 331 336 319 293 292 306 314 328
310 306 304 303 303 300 301 304 306 308 312 313 311 311 308 308 310 311 314 318 323 322 317 319 328 342 353 356 310 317 330 344 357 357 334 290 267 267
305 305 303 300 295 295 296 300 302 305 308 310 308 307 308 313 312 308 310 312 320 326 331 334 344 356 355 348 335 331 336 338 344 355 350 339 313 277